Location: Asheville, NC
(35.6000°N, 82.5500°W)
Time: 04:38:22
(UTC-04:00)

CUTE-I - Pass Details

Date: 17 February 2018
Orbit: 810 x 826 km, 98.7° (Epoch: 24 May)

Event Time Altitude Azimuth Distance (km) Brightness Sun altitude
Rises 05:39:25 0° 33° (NNE) 3,359 ? -20.0°
Reaches altitude 10° 05:42:40 10° 54° (NE) 2,424 ? -19.3°
Maximum altitude 05:46:02 17° 93° (E) 1,982 ? -18.7°
Drops below altitude 10° 05:49:24 10° 132° (SE) 2,418 ? -18.0°
Sets 05:52:36 0° 153° (SSE) 3,346 ? -17.3°
